When you browse on this site, cookies collect data to enhance your experience and personalize the content and advertising you see.
Visit our Privacy Policy to learn more. By continuing to use the site, you agree to this use of cookies and data.
  • en Belgique
  • Liste des pays
  • À 7 jours
  • Température de l'eau
  • Carte satellitaire
  • Carte météo
  • Widgets météo
  • user-avatar
    Se connecter

    Météo par heure à Pleshkovo

    Ce jour, 22 Février, Vendredi

    Heure Température Précipitation Vent Pression Humidité
    00:00 -14°C° 0.1 mm 7 m/s 745 mmHg 82%
    01:00 -14°C° 0.1 mm 7 m/s 745 mmHg 82%
    02:00 -14°C° 0.1 mm 7 m/s 746 mmHg 82%
    03:00 -15°C° 0.1 mm 7 m/s 746 mmHg 81%
    04:00 -15°C° 0.1 mm 7 m/s 747 mmHg 81%
    05:00 -15°C° 0.1 mm 7 m/s 747 mmHg 80%
    06:00 -15°C° 0.1 mm 7 m/s 748 mmHg 80%
    07:00 -16°C° 0.1 mm 8 m/s 749 mmHg 80%
    08:00 -16°C° 0.1 mm 8 m/s 750 mmHg 79%
    09:00 -16°C° 0.1 mm 8 m/s 751 mmHg 78%
    10:00 -16°C° 0.1 mm 8 m/s 751 mmHg 76%
    11:00 -16°C° 0.1 mm 8 m/s 752 mmHg 74%
    12:00 -15°C° 0 mm 8 m/s 753 mmHg 72%
    13:00 -15°C° 0 mm 8 m/s 754 mmHg 70%
    14:00 -13°C° 0 mm 8 m/s 754 mmHg 68%
    15:00 -13°C° 0 mm 7 m/s 755 mmHg 71%
    16:00 -14°C° 0 mm 7 m/s 756 mmHg 73%
    17:00 -14°C° 0 mm 6 m/s 757 mmHg 75%
    18:00 -14°C° 0 mm 6 m/s 758 mmHg 76%
    19:00 -15°C° 0 mm 6 m/s 758 mmHg 78%
    20:00 -14°C° 0 mm 5 m/s 759 mmHg 80%
    21:00 -14°C° 0 mm 5 m/s 760 mmHg 82%
    22:00 -14°C° 0 mm 5 m/s 760 mmHg 84%
    23:00 -15°C° 0 mm 4 m/s 761 mmHg 85%

    Demain, 23 Février, Samedi

    Heure Température Précipitation Vent Pression Humidité
    00:00 -15°C° 0 mm 4 m/s 761 mmHg 87%
    01:00 -15°C° 0 mm 4 m/s 762 mmHg 89%
    02:00 -15°C° 0 mm 4 m/s 763 mmHg 90%
    03:00 -15°C° 0 mm 3 m/s 763 mmHg 91%
    04:00 -16°C° 0 mm 3 m/s 763 mmHg 93%
    05:00 -16°C° 0 mm 3 m/s 763 mmHg 94%
    06:00 -15°C° 0 mm 2 m/s 763 mmHg 92%
    07:00 -15°C° 0 mm 2 m/s 763 mmHg 89%
    08:00 -15°C° 0 mm 2 m/s 764 mmHg 87%
    09:00 -14°C° 0 mm 2 m/s 763 mmHg 84%
    10:00 -12°C° 0 mm 2 m/s 763 mmHg 81%
    11:00 -10°C° 0 mm 2 m/s 763 mmHg 78%
    12:00 -9°C° 0 mm 2 m/s 762 mmHg 77%
    13:00 -9°C° 0 mm 3 m/s 762 mmHg 76%
    14:00 -8°C° 0 mm 3 m/s 761 mmHg 75%
    15:00 -9°C° 0.1 mm 4 m/s 760 mmHg 79%
    16:00 -9°C° 0.1 mm 4 m/s 759 mmHg 83%
    17:00 -9°C° 0.1 mm 4 m/s 759 mmHg 86%
    18:00 -10°C° 0.5 mm 5 m/s 758 mmHg 87%
    19:00 -10°C° 0.5 mm 5 m/s 757 mmHg 89%
    20:00 -8°C° 0.5 mm 5 m/s 757 mmHg 90%
    21:00 -8°C° 0.4 mm 5 m/s 756 mmHg 90%
    22:00 -8°C° 0.4 mm 5 m/s 755 mmHg 91%
    23:00 -7°C° 0.4 mm 4 m/s 755 mmHg 92%

    Après-demain, 24 Février, Dimanche

    Heure Température Précipitation Vent Pression Humidité
    00:00 -5°C° 0.6 mm 4 m/s 754 mmHg 92%
    01:00 -4°C° 0.6 mm 4 m/s 754 mmHg 93%
    02:00 -4°C° 0.6 mm 4 m/s 754 mmHg 93%
    03:00 -3°C° 0.4 mm 4 m/s 754 mmHg 93%
    04:00 -2°C° 0.4 mm 4 m/s 753 mmHg 93%
    05:00 -1°C° 0.4 mm 4 m/s 753 mmHg 93%
    06:00 -1°C° 0.3 mm 4 m/s 754 mmHg 94%
    07:00 -1°C° 0.3 mm 4 m/s 754 mmHg 95%
    08:00 -1°C° 0.3 mm 4 m/s 754 mmHg 96%
    09:00 0°C° 0.1 mm 3 m/s 754 mmHg 97%
    10:00 +1°C° 0.1 mm 3 m/s 755 mmHg 98%
    11:00 +1°C° 0.1 mm 3 m/s 755 mmHg 99%
    12:00 +1°C° 0 mm 3 m/s 755 mmHg 99%
    13:00 +1°C° 0 mm 3 m/s 755 mmHg 99%
    14:00 0°C° 0 mm 3 m/s 755 mmHg 99%
    15:00 0°C° 0 mm 3 m/s 755 mmHg 98%
    16:00 0°C° 0 mm 3 m/s 755 mmHg 97%
    17:00 0°C° 0 mm 3 m/s 755 mmHg 97%
    18:00 0°C° 0 mm 3 m/s 755 mmHg 96%
    19:00 0°C° 0 mm 3 m/s 755 mmHg 96%
    20:00 0°C° 0 mm 3 m/s 755 mmHg 95%
    21:00 0°C° 0 mm 3 m/s 754 mmHg 95%
    22:00 0°C° 0 mm 3 m/s 753 mmHg 96%
    23:00 -1°C° 0 mm 4 m/s 753 mmHg 96%

    25 Février, Lundi

    Heure Température Précipitation Vent Pression Humidité
    00:00 -1°C° 0.4 mm 4 m/s 752 mmHg 95%
    01:00 -1°C° 0.4 mm 4 m/s 751 mmHg 95%
    02:00 0°C° 0.4 mm 5 m/s 751 mmHg 95%
    03:00 0°C° 0 mm 5 m/s 750 mmHg 94%
    04:00 0°C° 0 mm 5 m/s 750 mmHg 94%
    05:00 0°C° 0 mm 5 m/s 749 mmHg 93%
    06:00 0°C° 0.1 mm 5 m/s 749 mmHg 92%
    07:00 -1°C° 0.1 mm 6 m/s 749 mmHg 91%
    08:00 -1°C° 0.1 mm 6 m/s 749 mmHg 90%
    09:00 0°C° 0 mm 5 m/s 749 mmHg 90%
    10:00 0°C° 0 mm 5 m/s 748 mmHg 89%
    11:00 0°C° 0 mm 5 m/s 748 mmHg 89%
    12:00 0°C° 0 mm 5 m/s 748 mmHg 87%
    13:00 -1°C° 0 mm 6 m/s 748 mmHg 84%
    14:00 -1°C° 0 mm 6 m/s 748 mmHg 82%
    15:00 -2°C° 0 mm 6 m/s 748 mmHg 82%
    16:00 -2°C° 0 mm 6 m/s 748 mmHg 82%
    17:00 -3°C° 0 mm 6 m/s 748 mmHg 83%
    18:00 -2°C° 0.1 mm 5 m/s 747 mmHg 83%
    19:00 -2°C° 0.1 mm 5 m/s 747 mmHg 83%
    20:00 -2°C° 0.1 mm 5 m/s 746 mmHg 84%
    21:00 -2°C° 0.1 mm 5 m/s 746 mmHg 86%
    22:00 -2°C° 0.1 mm 4 m/s 746 mmHg 88%
    23:00 -2°C° 0.1 mm 4 m/s 745 mmHg 90%

    26 Février, Mardi

    Heure Température Précipitation Vent Pression Humidité
    00:00 -2°C° 0.1 mm 4 m/s 745 mmHg 89%
    01:00 -2°C° 0.1 mm 4 m/s 745 mmHg 89%
    02:00 -2°C° 0.1 mm 4 m/s 745 mmHg 89%
    03:00 -2°C° 0 mm 4 m/s 745 mmHg 89%
    04:00 -3°C° 0 mm 4 m/s 746 mmHg 90%
    05:00 -4°C° 0 mm 4 m/s 746 mmHg 90%
    06:00 -4°C° 0 mm 4 m/s 745 mmHg 88%
    07:00 -4°C° 0 mm 4 m/s 745 mmHg 87%
    08:00 -3°C° 0 mm 4 m/s 745 mmHg 85%
    09:00 -3°C° 0.1 mm 4 m/s 745 mmHg 85%
    10:00 -3°C° 0.1 mm 4 m/s 745 mmHg 84%
    11:00 -2°C° 0.1 mm 5 m/s 744 mmHg 83%
    12:00 -2°C° 0.1 mm 4 m/s 744 mmHg 83%
    13:00 -2°C° 0.1 mm 4 m/s 744 mmHg 84%
    14:00 -2°C° 0.1 mm 4 m/s 743 mmHg 84%
    15:00 -2°C° 0.1 mm 4 m/s 743 mmHg 85%
    16:00 -2°C° 0.1 mm 3 m/s 743 mmHg 86%
    17:00 -2°C° 0.1 mm 3 m/s 743 mmHg 87%
    18:00 -4°C° 0.1 mm 3 m/s 743 mmHg 86%
    19:00 -4°C° 0.1 mm 4 m/s 743 mmHg 85%
    20:00 -4°C° 0.1 mm 4 m/s 743 mmHg 83%
    21:00 -5°C° 0 mm 4 m/s 744 mmHg 84%
    22:00 -7°C° 0 mm 4 m/s 744 mmHg 85%
    23:00 -8°C° 0 mm 4 m/s 744 mmHg 86%

    27 Février, Mercredi

    Heure Température Précipitation Vent Pression Humidité
    00:00 -10°C° 0 mm 4 m/s 745 mmHg 86%
    01:00 -11°C° 0 mm 4 m/s 745 mmHg 86%
    02:00 -12°C° 0 mm 4 m/s 746 mmHg 85%
    03:00 -12°C° 0 mm 4 m/s 746 mmHg 85%
    04:00 -14°C° 0 mm 4 m/s 747 mmHg 85%
    05:00 -14°C° 0 mm 4 m/s 747 mmHg 84%
    06:00 -14°C° 0 mm 4 m/s 748 mmHg 82%
    07:00 -14°C° 0 mm 4 m/s 748 mmHg 81%
    08:00 -14°C° 0 mm 4 m/s 749 mmHg 79%
    09:00 -12°C° 0 mm 3 m/s 749 mmHg 77%
    10:00 -10°C° 0 mm 3 m/s 749 mmHg 74%
    11:00 -9°C° 0 mm 3 m/s 749 mmHg 71%
    12:00 -8°C° 0 mm 3 m/s 748 mmHg 72%
    13:00 -6°C° 0 mm 2 m/s 748 mmHg 73%
    14:00 -5°C° 0 mm 2 m/s 748 mmHg 74%
    15:00 -6°C° 0 mm 2 m/s 747 mmHg 79%
    16:00 -6°C° 0 mm 2 m/s 747 mmHg 84%
    17:00 -4°C° 0 mm 1 m/s 746 mmHg 89%
    18:00 -5°C° 0 mm 2 m/s 745 mmHg 90%
    19:00 -5°C° 0 mm 3 m/s 744 mmHg 91%
    20:00 -4°C° 0 mm 3 m/s 743 mmHg 91%
    21:00 -4°C° 0.1 mm 4 m/s 742 mmHg 91%
    22:00 -4°C° 0.1 mm 4 m/s 741 mmHg 91%
    23:00 -4°C° 0.1 mm 4 m/s 740 mmHg 92%
    Voir plus